Hourly Weather Roundup
Issued by NWS Central Illinois

Home | Current Version | Previous Version | Text Only | Print | Product List | Glossary On
Versions: 1 2 3 4 5 6 7 8 9 10 11 12 13 14 15 16 17 18 19 20 21 22 23 24 25 26 27 28 29 30 31 32 33 34 35 36 37 38 39 40 41 42 43 44 45 46 47 48 49 50
000
NZUS43 KILX 221510
HWRILX

AREA WEATHER ROUNDUP
NATIONAL WEATHER SERVICE, LINCOLN IL
900 AM CST SUN JAN 22 2017


CITY           SKY/WX    TMP DP  RH WIND       PRES   REMARKS
BLOOMINGTON    FOG       39  39 100 N12       29.62R VSB 1/2 WCI  32
CHAMPAIGN      CLOUDY    45  41  86 NE8       29.58F
DANVILLE       CLOUDY    43  43  99 N7        29.57S FOG
DECATUR        CLOUDY    42  42 100 NE8       29.59R FOG
EFFINGHAM      CLOUDY    51  51 100 CALM      29.55F
FLORA          CLOUDY    52  50  92 N6        29.52F
GALESBURG      CLOUDY    35  35 100 CALM      29.64R FOG
JACKSONVILLE   FOG       40  40 100 N7        29.60S VSB 1/4
LACON          FOG       35  35 100 CALM      29.64R VSB 1/4
LAWRENCEVILLE  CLOUDY    51  49  92 NE6       29.53F
LITCHFIELD     CLOUDY    41  41  97 NE10      29.55S FOG
$$


CITY           SKY/WX    TMP DP  RH WIND       PRES   REMARKS
LINCOLN        CLOUDY    41  41 100 N9        29.61R FOG
MACOMB         CLOUDY    38  38 100 N7        29.65R FOG     WCI  33
MATTOON        CLOUDY    47  47 100 N7        29.55F FOG
MT CARMEL AP   PTSUNNY   50  47  89 NE9       29.51F
OLNEY-NOBLE AP MOSUNNY   52  52 100 NE7       29.52F
PARIS          PTSUNNY   48  48 100 E5        29.58S
PEORIA         CLOUDY    39  39 100 N7        29.62F FOG     WCI  34
PONTIAC        FOG       40  40 100 N6        29.63R VSB 1/2
RANTOUL        CLOUDY    41  40  98 NE8       29.60S FOG
SPRINGFIELD    FOG       41  40  96 N10       29.60S VSB 1/2 WCI  35
TAYLORVILLE    CLOUDY    41  40  98 N8        29.58R FOG
$$

...REGIONAL REPORTS...


CITY           SKY/WX    TMP DP  RH WIND       PRES   REMARKS
CHICAGO O`HARE CLOUDY    41  38  89 N5        29.63R
KANKAKEE       FOG       38  37  98 N7        29.64R VSB 1/4 WCI  33
MOLINE         CLOUDY    34  32  92 CALM      29.65R FOG
MOUNT STERLING CLOUDY    40  39  98 N7        29.61S FOG     WCI  35
MOUNT VERNON   CLOUDY    52  50  93 NE6       29.49F
PITTSFIELD     CLOUDY    42  42  99 N9        29.60S FOG
QUINCY         CLOUDY    41  39  93 NE10      29.61R FOG     WCI  35
ROCKFORD       FOG       36  35  96 NE5       29.67R VSB 1/2 WCI  32
$$


CITY           SKY/WX    TMP DP  RH WIND       PRES   REMARKS
BURLINGTON     MIX PCPN  38  37  97 N5        29.64R FOG     WCI  34
CEDAR RAPIDS   CLOUDY    32  32 100 NW9       29.65R FOG     WCI  24
DES MOINES     CLOUDY    34  32  92 NW12      29.70R WCI  25
KIRKSVILLE     CLOUDY    40  39  97 N5        29.65R FOG
OTTUMWA        FOG       33  31  92 NW10      29.68R VSB 1   WCI  25
ST LOUIS       CLOUDY    48  42  80 N7        29.53S
$$


CITY           SKY/WX    TMP DP  RH WIND       PRES   REMARKS
TERRE HAUTE    CLOUDY    51  48  89 NE5       29.57S
EVANSVILLE     CLOUDY    53  49  86 NE3       29.50F
INDIANAPOLIS   CLOUDY    52  49  89 E3        29.57S
LAFAYETTE      CLOUDY    43  43 100 CALM      29.60R FOG
MADISON        CLOUDY    38  36  92 CALM      29.65R FOG
MILWAUKEE      CLOUDY    42  39  89 NW3       29.64R FOG
$$





USA.gov is the U.S. government's official web portal to all federal, state and local government web resources and services.